| time (UTC) | temp F | wind direction | speed MPH | gust MPH | rain 1hr in | rain 24hr in | rain mn in | humidity % | barometer mb |
| 20260507180422 | 57 | 225 | 1.0 | 1.0 | 0.00 | 0.01 | 0.00 | 69 | 1015.4 |
| 20260507175417 | 58 | 225 | 1.0 | 1.0 | 0.00 | 0.01 | 0.00 | 68 | 1015.2 |
| 20260507174422 | 59 | 0.0 | 1.0 | 0.00 | 0.01 | 0.00 | 66 | 1015.2 | |
| 20260507173437 | 59 | 225 | 1.0 | 2.0 | 0.00 | 0.01 | 0.00 | 65 | 1015.0 |
| 20260507172417 | 60 | 203 | 1.0 | 3.0 | 0.00 | 0.01 | 0.00 | 64 | 1015.0 |
| 20260507171417 | 60 | 203 | 2.0 | 3.0 | 0.00 | 0.01 | 0.00 | 63 | 1015.0 |
| 20260507170417 | 60 | 203 | 3.0 | 6.0 | 0.00 | 0.01 | 0.00 | 64 | 1014.8 |
| 20260507165417 | 60 | 203 | 2.0 | 3.0 | 0.00 | 0.01 | 0.00 | 64 | 1014.9 |
| 20260507164417 | 60 | 225 | 2.0 | 4.0 | 0.00 | 0.01 | 0.00 | 64 | 1014.9 |
| 20260507163417 | 60 | 203 | 2.0 | 4.0 | 0.00 | 0.01 | 0.00 | 64 | 1015.0 |
| 20260507162427 | 60 | 225 | 2.0 | 2.0 | 0.00 | 0.01 | 0.00 | 64 | 1015.0 |
| 20260507161417 | 61 | 203 | 1.0 | 2.0 | 0.00 | 0.01 | 0.00 | 63 | 1014.9 |
| 20260507160417 | 61 | 203 | 2.0 | 4.0 | 0.00 | 0.01 | 0.00 | 62 | 1014.9 |
| 20260507155438 | 61 | 203 | 2.0 | 4.0 | 0.00 | 0.01 | 0.00 | 62 | 1015.0 |
| 20260507154417 | 62 | 225 | 4.0 | 6.0 | 0.00 | 0.01 | 0.00 | 61 | 1014.9 |
| 20260507153417 | 62 | 203 | 1.0 | 1.0 | 0.00 | 0.01 | 0.00 | 60 | 1014.8 |
| 20260507152416 | 63 | 293 | 2.0 | 4.0 | 0.00 | 0.01 | 0.00 | 59 | 1014.7 |
| 20260507151417 | 63 | 225 | 3.0 | 5.0 | 0.00 | 0.01 | 0.00 | 59 | 1014.6 |
| 20260507150417 | 63 | 203 | 4.0 | 8.0 | 0.00 | 0.01 | 0.00 | 59 | 1014.5 |
| 20260507145422 | 63 | 225 | 4.0 | 7.0 | 0.00 | 0.01 | 0.00 | 58 | 1014.7 |
| 20260507144502 | 63 | 203 | 2.0 | 4.0 | 0.00 | 0.01 | 0.00 | 58 | 1014.6 |
| 20260507143417 | 63 | 203 | 4.0 | 8.0 | 0.00 | 0.01 | 0.00 | 57 | 1014.6 |
| 20260507142417 | 64 | 203 | 4.0 | 7.0 | 0.00 | 0.01 | 0.00 | 57 | 1014.5 |
| 20260507141417 | 64 | 180 | 3.0 | 3.0 | 0.00 | 0.01 | 0.00 | 57 | 1014.5 |
| 20260507140417 | 64 | 203 | 2.0 | 3.0 | 0.00 | 0.01 | 0.00 | 56 | 1014.5 |
| 20260507135418 | 64 | 180 | 2.0 | 3.0 | 0.00 | 0.01 | 0.01 | 55 | 1014.3 |
| 20260507134418 | 64 | 225 | 2.0 | 4.0 | 0.00 | 0.01 | 0.01 | 55 | 1014.5 |
| 20260507133418 | 65 | 225 | 1.0 | 3.0 | 0.00 | 0.01 | 0.01 | 55 | 1014.4 |
| 20260507132428 | 65 | 203 | 3.0 | 4.0 | 0.00 | 0.01 | 0.01 | 53 | 1014.6 |
| 20260507131418 | 66 | 225 | 1.0 | 3.0 | 0.00 | 0.01 | 0.01 | 52 | 1014.7 |
| 20260507130417 | 66 | 203 | 1.0 | 3.0 | 0.00 | 0.01 | 0.01 | 51 | 1014.8 |
| 20260507125428 | 66 | 315 | 1.0 | 2.0 | 0.00 | 0.01 | 0.01 | 50 | 1014.9 |
| 20260507124438 | 67 | 180 | 1.0 | 2.0 | 0.00 | 0.01 | 0.01 | 49 | 1014.9 |
| 20260507123418 | 67 | 225 | 1.0 | 2.0 | 0.00 | 0.01 | 0.01 | 48 | 1014.9 |
| 20260507122417 | 68 | 225 | 2.0 | 4.0 | 0.00 | 0.01 | 0.01 | 47 | 1014.8 |
| 20260507121423 | 68 | 225 | 3.0 | 4.0 | 0.00 | 0.01 | 0.01 | 48 | 1014.8 |
| 20260507120438 | 68 | 203 | 1.0 | 4.0 | 0.00 | 0.01 | 0.01 | 47 | 1014.8 |
| 20260507115418 | 68 | 196 | 4.0 | 0.0 | 0.00 | 0.01 | 0.01 | 46 | 1014.5 |
| 20260507114437 | 68 | 203 | 2.0 | 4.0 | 0.00 | 0.01 | 0.01 | 49 | 1014.4 |
| 20260507113418 | 68 | 203 | 1.0 | 2.0 | 0.00 | 0.01 | 0.01 | 48 | 1014.3 |
| 20260507112417 | 68 | 0.0 | 1.0 | 0.00 | 0.01 | 0.01 | 49 | 1014.3 | |
| 20260507111439 | 68 | 225 | 1.0 | 2.0 | 0.00 | 0.01 | 0.01 | 46 | 1014.0 |
| 20260507110422 | 67 | 0 | 2.0 | 4.0 | 0.00 | 0.01 | 0.01 | 49 | 1013.8 |
| 20260507105418 | 67 | 0.0 | 1.0 | 0.00 | 0.01 | 0.01 | 53 | 1013.7 | |
| 20260507104417 | 66 | 0.0 | 0.0 | 0.00 | 0.01 | 0.01 | 58 | 1013.5 | |
| 20260507103422 | 66 | 23 | 2.0 | 2.0 | 0.00 | 0.01 | 0.01 | 56 | 1013.4 |
| 20260507102417 | 66 | 23 | 1.0 | 2.0 | 0.00 | 0.01 | 0.01 | 62 | 1013.4 |
| 20260507101418 | 67 | 0.0 | 1.0 | 0.00 | 0.01 | 0.01 | 60 | 1013.3 | |
| 20260507100417 | 68 | 23 | 1.0 | 2.0 | 0.00 | 0.01 | 0.01 | 55 | 1013.2 |
| 20260507095438 | 69 | 0.0 | 1.0 | 0.00 | 0.01 | 0.01 | 50 | 1013.1 | |
| 20260507094437 | 69 | 0.0 | 1.0 | 0.00 | 0.01 | 0.01 | 53 | 1012.9 | |
| 20260507093418 | 70 | 113 | 1.0 | 2.0 | 0.00 | 0.01 | 0.01 | 49 | 1012.8 |
| 20260507092418 | 71 | 0.0 | 0.0 | 0.00 | 0.01 | 0.01 | 48 | 1012.8 | |
| 20260507091417 | 72 | 0.0 | 1.0 | 0.00 | 0.01 | 0.01 | 47 | 1012.8 | |
| 20260507090437 | 72 | 113 | 2.0 | 3.0 | 0.00 | 0.01 | 0.01 | 44 | 1012.5 |
| 20260507085417 | 73 | 0.0 | 1.0 | 0.00 | 0.01 | 0.01 | 44 | 1012.5 | |
| 20260507084417 | 73 | 0.0 | 1.0 | 0.00 | 0.01 | 0.01 | 43 | 1012.4 | |
| 20260507083437 | 74 | 0 | 4.0 | 8.0 | 0.00 | 0.01 | 0.01 | 41 | 1012.2 |
| 20260507082437 | 74 | 225 | 2.0 | 3.0 | 0.00 | 0.01 | 0.01 | 41 | 1012.2 |
| 20260507081417 | 74 | 315 | 2.0 | 5.0 | 0.00 | 0.01 | 0.01 | 40 | 1012.0 |
| 20260507080417 | 75 | 270 | 2.0 | 4.0 | 0.00 | 0.01 | 0.01 | 41 | 1011.9 |
| 20260507075417 | 75 | 225 | 3.0 | 4.0 | 0.00 | 0.01 | 0.01 | 40 | 1011.7 |
| 20260507074417 | 75 | 270 | 1.0 | 3.0 | 0.00 | 0.01 | 0.01 | 41 | 1011.5 |
| 20260507073423 | 76 | 293 | 1.0 | 1.0 | 0.00 | 0.01 | 0.01 | 42 | 1011.4 |
| 20260507072437 | 76 | 225 | 3.0 | 5.0 | 0.00 | 0.01 | 0.01 | 42 | 1011.2 |
| 20260507071417 | 76 | 338 | 3.0 | 10.0 | 0.00 | 0.01 | 0.01 | 42 | 1011.2 |
| 20260507070417 | 76 | 315 | 3.0 | 8.0 | 0.00 | 0.01 | 0.01 | 47 | 1011.1 |
| 20260507065417 | 77 | 248 | 1.0 | 1.0 | 0.00 | 0.01 | 0.01 | 48 | 1010.9 |
| 20260507064417 | 77 | 315 | 2.0 | 3.0 | 0.00 | 0.01 | 0.01 | 48 | 1010.7 |
| 20260507063437 | 77 | 315 | 3.0 | 6.0 | 0.00 | 0.01 | 0.01 | 49 | 1010.5 |
| 20260507062417 | 78 | 0.0 | 1.0 | 0.00 | 0.01 | 0.01 | 53 | 1010.5 | |
| 20260507061422 | 78 | 23 | 1.0 | 3.0 | 0.00 | 0.01 | 0.01 | 54 | 1010.5 |
| 20260507060416 | 79 | 0 | 1.0 | 3.0 | 0.00 | 0.01 | 0.01 | 59 | 1010.5 |
| 20260507055422 | 79 | 0 | 1.0 | 2.0 | 0.00 | 0.01 | 0.01 | 57 | 1010.6 |
| 20260507054417 | 80 | 0.0 | 1.0 | 0.00 | 0.01 | 0.01 | 57 | 1010.4 | |
| 20260507053417 | 80 | 315 | 1.0 | 2.0 | 0.00 | 0.01 | 0.01 | 56 | 1010.3 |
| 20260507052421 | 80 | 0 | 2.0 | 3.0 | 0.00 | 0.01 | 0.01 | 59 | 1010.3 |
| 20260507051422 | 80 | 338 | 3.0 | 4.0 | 0.00 | 0.01 | 0.01 | 59 | 1010.3 |
| 20260507050416 | 80 | 315 | 2.0 | 3.0 | 0.00 | 0.01 | 0.01 | 63 | 1010.2 |
| 20260507045427 | 79 | 0.0 | 1.0 | 0.00 | 0.01 | 0.01 | 66 | 1010.2 | |
| 20260507044417 | 79 | 0 | 2.0 | 4.0 | 0.00 | 0.01 | 0.01 | 66 | 1010.3 |
| 20260507043417 | 80 | 0 | 1.0 | 2.0 | 0.00 | 0.01 | 0.01 | 67 | 1010.5 |
| 20260507042443 | 80 | 23 | 1.0 | 2.0 | 0.00 | 0.01 | 0.01 | 67 | 1010.3 |
| 20260507041419 | 80 | 23 | 1.0 | 2.0 | 0.00 | 0.01 | 0.01 | 64 | 1010.2 |
| 20260507040423 | 80 | 0 | 2.0 | 4.0 | 0.00 | 0.01 | 0.01 | 67 | 1010.4 |
| 20260507035419 | 80 | 0.0 | 1.0 | 0.00 | 0.01 | 0.01 | 66 | 1010.3 | |
| 20260507034418 | 80 | 338 | 3.0 | 7.0 | 0.00 | 0.01 | 0.01 | 67 | 1010.6 |
| 20260507033419 | 80 | 23 | 1.0 | 2.0 | 0.00 | 0.01 | 0.01 | 67 | 1010.7 |
| 20260507032418 | 80 | 0 | 1.0 | 2.0 | 0.00 | 0.01 | 0.01 | 68 | 1010.7 |
| 20260507031419 | 80 | 0 | 2.0 | 3.0 | 0.00 | 0.01 | 0.01 | 68 | 1010.9 |
| 20260507030443 | 80 | 23 | 1.0 | 3.0 | 0.00 | 0.01 | 0.01 | 67 | 1010.9 |
| 20260507025439 | 79 | 0 | 2.0 | 4.0 | 0.00 | 0.01 | 0.01 | 68 | 1011.0 |
| 20260507024423 | 80 | 0 | 1.0 | 2.0 | 0.00 | 0.01 | 0.01 | 67 | 1011.1 |
| 20260507023419 | 80 | 0 | 1.0 | 3.0 | 0.00 | 0.01 | 0.01 | 68 | 1011.2 |
| 20260507022418 | 79 | 23 | 4.0 | 7.0 | 0.00 | 0.01 | 0.01 | 70 | 1011.6 |
| 20260507021419 | 79 | 293 | 2.0 | 5.0 | 0.00 | 0.02 | 0.01 | 70 | 1011.8 |
| 20260507020418 | 78 | 180 | 1.0 | 2.0 | 0.00 | 0.02 | 0.01 | 72 | 1012.0 |
| 20260507015419 | 78 | 0 | 3.0 | 7.0 | 0.00 | 0.03 | 0.01 | 72 | 1012.0 |
| 20260507014418 | 78 | 23 | 2.0 | 4.0 | 0.00 | 0.03 | 0.01 | 72 | 1012.0 |
| 20260507013418 | 78 | 315 | 2.0 | 3.0 | 0.00 | 0.03 | 0.01 | 73 | 1012.1 |
| 20260507012438 | 78 | 45 | 1.0 | 3.0 | 0.00 | 0.03 | 0.01 | 74 | 1012.2 |
| 20260507011419 | 78 | 23 | 2.0 | 5.0 | 0.00 | 0.03 | 0.01 | 73 | 1012.3 |
| 20260507010418 | 77 | 0 | 3.0 | 5.0 | 0.00 | 0.03 | 0.01 | 74 | 1012.5 |
| 20260507005423 | 77 | 338 | 2.0 | 3.0 | 0.00 | 0.03 | 0.01 | 75 | 1012.9 |
| 20260507004418 | 77 | 0 | 2.0 | 2.0 | 0.00 | 0.03 | 0.01 | 77 | 1013.1 |
| 20260507003419 | 77 | 248 | 1.0 | 2.0 | 0.00 | 0.03 | 0.01 | 77 | 1013.3 |
| 20260507002418 | 76 | 0.0 | 1.0 | 0.00 | 0.03 | 0.01 | 78 | 1013.6 | |
| 20260507001419 | 75 | 0.0 | 1.0 | 0.00 | 0.03 | 0.01 | 78 | 1013.6 | |
| 20260507000420 | 75 | 338 | 1.0 | 3.0 | 0.00 | 0.03 | 0.01 | 79 | 1013.7 |
| 20260506235519 | 75 | 0 | 1.0 | 2.0 | 0.00 | 0.03 | 0.01 | 79 | 1013.9 |
| 20260506234418 | 74 | 0 | 2.0 | 4.0 | 0.00 | 0.03 | 0.01 | 79 | 1014.1 |
| 20260506233418 | 75 | 23 | 2.0 | 4.0 | 0.00 | 0.03 | 0.01 | 78 | 1014.1 |
| 20260506232418 | 75 | 293 | 3.0 | 6.0 | 0.00 | 0.03 | 0.01 | 77 | 1014.2 |
| 20260506231444 | 75 | 68 | 1.0 | 3.0 | 0.00 | 0.03 | 0.01 | 79 | 1014.2 |
| 20260506230438 | 74 | 0 | 1.0 | 2.0 | 0.00 | 0.03 | 0.01 | 80 | 1014.1 |
| 20260506225419 | 75 | 315 | 1.0 | 1.0 | 0.00 | 0.03 | 0.01 | 80 | 1014.2 |
| 20260506224418 | 73 | 0.0 | 0.0 | 0.00 | 0.03 | 0.01 | 81 | 1014.2 | |
| 20260506223423 | 73 | 0 | 1.0 | 6.0 | 0.00 | 0.03 | 0.01 | 82 | 1014.0 |
| 20260506222417 | 72 | 315 | 2.0 | 3.0 | 0.00 | 0.03 | 0.01 | 84 | 1013.9 |
| 20260506221418 | 71 | 0.0 | 1.0 | 0.00 | 0.03 | 0.01 | 87 | 1014.1 | |
| 20260506220418 | 70 | 315 | 1.0 | 2.0 | 0.00 | 0.03 | 0.01 | 89 | 1014.1 |
| 20260506215438 | 69 | 0.0 | 1.0 | 0.00 | 0.03 | 0.01 | 92 | 1014.0 | |
| 20260506214417 | 68 | 158 | 1.0 | 2.0 | 0.00 | 0.03 | 0.01 | 93 | 1014.0 |
| 20260506213418 | 67 | 0.0 | 1.0 | 0.00 | 0.03 | 0.01 | 94 | 1014.0 | |
| 20260506212417 | 66 | 0.0 | 1.0 | 0.00 | 0.03 | 0.01 | 94 | 1013.9 | |
| 20260506211424 | 65 | 0.0 | 1.0 | 0.00 | 0.03 | 0.01 | 94 | 1013.7 | |
| 20260506210418 | 64 | 180 | 1.0 | 2.0 | 0.00 | 0.03 | 0.01 | 93 | 1013.7 |
| 20260506205419 | 64 | 0.0 | 1.0 | 0.00 | 0.03 | 0.01 | 93 | 1013.8 | |
| 20260506204438 | 64 | 0.0 | 0.0 | 0.00 | 0.03 | 0.01 | 94 | 1013.8 | |
| 20260506203428 | 64 | 0.0 | 1.0 | 0.00 | 0.03 | 0.01 | 94 | 1013.7 | |
| 20260506202417 | 64 | 0.0 | 1.0 | 0.00 | 0.03 | 0.01 | 93 | 1013.6 | |
| 20260506201438 | 64 | 0.0 | 0.0 | 0.00 | 0.03 | 0.01 | 93 | 1013.6 | |
| 20260506200417 | 64 | 0.0 | 0.0 | 0.01 | 0.03 | 0.01 | 93 | 1013.4 | |
| 20260506195438 | 64 | 0.0 | 0.0 | 0.01 | 0.03 | 0.01 | 93 | 1013.2 | |
| 20260506194417 | 63 | 180 | 1.0 | 2.0 | 0.01 | 0.03 | 0.01 | 93 | 1013.0 |
| 20260506193418 | 63 | 0.0 | 0.0 | 0.01 | 0.03 | 0.01 | 92 | 1013.0 | |
| 20260506192417 | 63 | 0.0 | 0.0 | 0.01 | 0.03 | 0.01 | 93 | 1012.9 | |
| 20260506191417 | 64 | 0.0 | 1.0 | 0.01 | 0.03 | 0.01 | 92 | 1012.8 | |
| 20260506190417 | 64 | 0.0 | 0.0 | 0.00 | 0.02 | 0.00 | 92 | 1012.8 | |
| 20260506185458 | 64 | 0.0 | 1.0 | 0.00 | 0.02 | 0.00 | 92 | 1012.9 | |
| 20260506184437 | 64 | 0.0 | 1.0 | 0.00 | 0.02 | 0.00 | 92 | 1012.8 | |
| 20260506183418 | 64 | 0.0 | 1.0 | 0.00 | 0.02 | 0.00 | 92 | 1013.0 | |
| 20260506182417 | 64 | 0.0 | 0.0 | 0.00 | 0.02 | 0.00 | 92 | 1013.0 | |
| 20260506181423 | 65 | 0.0 | 1.0 | 0.00 | 0.02 | 0.00 | 92 | 1013.0 |